Weather in Kutna Hora

Czech Republic     49°57′03″N   15°16′25″E
temp.,
°C
wind,
m/s
gust,
m/s
humid.,
%
clouds,
%
prec.,
mm/h
press.,
hPa
HPBL,
m
24 may, tue
tue2423:00+15se41167100 0.0 1005406
02:00+13se368999 0.7 1006131
05:00+13ssw489299 0.0 1006186
08:00+16ssw498981 0.0 1007411
11:00+21w346252 0.0 10071292
14:00+21wnw566194 0.6 10081264
17:00+19wnw4676100 1.9 1009823
20:00+16w2484100 1.9 101188
25 may, wed
wed2523:00+14w3792100 0.2 1013214
02:00+11wnw4896100 6.6 1014342
05:00+11wsw2397100 5.4 1014165
08:00+14w3584100 6.1 1015423
11:00+18wnw3468100 0.0 1016981
14:00+20w465189 0.1 10162074
17:00+20w57505 0.0 10161660
20:00+16sw336433 0.0 101742
26 may, thu
thu2623:00+15wsw486390 0.0 1019234
02:00+11sw37825 0.0 1020111
05:00+10sw31091100 0.0 1020183
08:00+16wsw5107080 0.0 1021573
11:00+19w79487 0.0 10211715
14:00+20wnw695468 0.0 10201926
17:00+20w5957100 0.0 10201760
20:00+17wsw34716 0.1 102065
27 may, fri
fri2723:00+13wsw228017 0.0 102127
02:00+12ssw34855 0.0 101953
05:00+11sw388688 0.0 1017155
08:00+16wsw7137075 0.0 1016733
11:00+20w9146136 0.1 10151850
14:00+12nnw61094100 1.8 1016693
17:00+11w41187100 2.4 1016593
20:00+12wnw5116781 2.9 1016377
28 may, sat
sat2823:00+8wsw35796 0.0 101768
02:00+8w5137324 0.0 1017418
05:00+7w5127741 0.0 1017473
08:00+8w61071100 0.0 10181289
11:00+12w8114959 0.1 10172098
14:00+15w811396 0.1 10162392
17:00+16nw794873 0.0 10152102
20:00+12w35665 0.0 1015112